This demonstration page uses our WeatherBlox Daily Observations layout. Learn more.

38.88101, -77.10428

Hourly Observations for January 24, 2020

Temp ( °F °C ) Dew Point ( °F °C ) Humidity (%) Winds ( mph kmh ) Pressure ( in mb ) Visibility ( mi km ) Precip ( " mm )
12:52 am 00:52 Mostly Cloudy 36 2.2 28 -2.2 73 73 ENE 5 7 30.33 1027 10 16.0934 0 0
1:18 am 01:18 Cloudy 35 1.7 28 -2.2 76 76 ENE 5 7 30.34 1028 10 16.0934 0 0
1:52 am 01:52 Cloudy 36 2.2 27 -2.8 70 70 ENE 6 9 30.33 1027 10 16.0934 0 0
2:52 am 02:52 Cloudy 36 2.2 27 -2.8 70 70 NE 5 7 30.34 1028 10 16.0934 0 0
3:27 am 03:27 Partly Cloudy 35 1.7 26 -3.3 70 70 NE 7 11 30.33 1027 10 16.0934 0 0
3:52 am 03:52 Clear 34 1.1 27 -2.8 76 76 NE 7 11 30.32 1027 10 16.0934 0 0
4:52 am 04:52 Mostly Cloudy 35 1.7 27 -2.8 72 72 NNE 5 7 30.31 1027 10 16.0934 0 0
5:52 am 05:52 Cloudy 35 1.7 28 -2.2 76 76 NE 6 9 30.32 1027 10 16.0934 0 0
6:52 am 06:52 Mostly Cloudy 36 2.2 28 -2.2 73 73 ENE 6 9 30.33 1027 10 16.0934 0 0
7:47 am 07:47 Cloudy 36 2 28 -2 75 75 NE 6 9 30.34 1028 9 14.48406 0 0
7:52 am 07:52 Cloudy 36 2.2 29 -1.7 76 76 NE 7 11 30.33 1027 9 14.48406 0 0
8:52 am 08:52 Cloudy 38 3.3 29 -1.7 70 70 NNE 8 13 30.32 1027 9 14.48406 0 0
9:11 am 09:11 Cloudy 39 3.9 29 -1.7 67 67 NNE 7 11 30.32 1027 9 14.48406 0 0
9:52 am 09:52 Mostly Cloudy 41 5 32 0 70 70 NE 7 11 30.31 1026 9 14.48406 0 0
10:52 am 10:52 Cloudy 45 7.2 37 2.8 74 74 E 6 9 30.3 1026 10 16.0934 0 0
11:52 am 11:52 Cloudy 47 8.3 38 3.3 71 71 Calm 30.28 1025 10 16.0934 0 0
12:09 pm 12:09 Cloudy 48 8.9 38 3.3 68 68 E 8 13 30.27 1025 10 16.0934 0 0
12:52 pm 12:52 Cloudy 50 10 40 4.4 68 68 E 7 11 30.23 1024 10 16.0934 0 0
1:52 pm 13:52 Cloudy with Light Rain 51 10.6 41 5 69 69 ESE 9 15 30.2 1023 10 16.0934 0.001 0.001
2:39 pm 14:39 Cloudy 50 10 42 5.6 74 74 E 6 9 30.2 1023 10 16.0934 0.001 0.001
2:52 pm 14:52 Cloudy 50 10 42 5.6 74 74 ENE 7 11 30.19 1022 10 16.0934 0.001 0.001
3:52 pm 15:52 Cloudy 50 10 42 5.6 74 74 ENE 8 13 30.17 1022 10 16.0934 0 0
4:52 pm 16:52 Cloudy 49 9.4 41 5 74 74 NE 7 11 30.15 1021 10 16.0934 0 0
5:52 pm 17:52 Cloudy 49 9.4 41 5 74 74 NE 8 13 30.14 1021 10 16.0934 0 0
6:52 pm 18:52 Cloudy 51 10.6 41 5 69 69 E 12 19 30.14 1021 10 16.0934 0 0
7:52 pm 19:52 Cloudy 50 10 42 5.6 74 74 E 10 17 30.13 1020 10 16.0934 0 0
8:52 pm 20:52 Cloudy 49 9.4 42 5.6 77 77 ENE 10 17 30.11 1020 10 16.0934 0 0
9:52 pm 21:52 Cloudy 48 8.9 42 5.6 80 80 E 13 20 30.08 1019 10 16.0934 0 0
10:52 pm 22:52 Cloudy 47 8.3 41 5 80 80 ENE 8 13 30.07 1018 10 16.0934 0 0
11:52 pm 23:52 Cloudy with Light Rain 48 8.9 42 5.6 80 80 E 14 22 30.04 1017 10 16.0934 0.001 0.001

Powered by AerisWeather